Regional Weather Roundup
Issued by NWS

Home | Current Version | Previous Version | Graphics & Text | Print | Product List | Glossary On
Versions: 1 2 3 4 5 6 7 8 9 10 11 12 13 14 15 16 17 18 19 20 21 22 23 24 25 26 27 28 29 30 31 32 33 34 35 36 37 38 39 40 41 42 43 44 45 46 47 48 49 50
786
ASUS43 KIND 251500
RWRIN

WEATHER ROUNDUP FOR INDIANA
NATIONAL WEATHER SERVICE INDIANAPOLIS IN
1100 AM EDT FRI MAY 25 2018

NOTE: "FAIR" INDICATES FEW OR NO CLOUDS BELOW 12,000 FEET WITH NO
SIGNIFICANT WEATHER AND/OR OBSTRUCTIONS TO VISIBILITY.

* - STATION DOES NOT REPORT WEATHER SUCH AS PRECIPITATION OR FOG.

+ - STATION NOT QUALITY CONTROLLED BY THE NATIONAL WEATHER SERVICE.
    USE DATA WITH CAUTION...ESPECIALLY DEWPOINT AND RELATIVE
    HUMIDITY OBSERVATIONS.

INZ001>003-010>013-019-020-251600-
NORTHWEST INDIANA

CITY           SKY/WX    TMP DP  RH WIND       PRES   REMARKS
GARY /AIRPORT/ SUNNY     82  54  36 SW8       29.95F
KNOX *+        FAIR      81  55  41 S6        29.97F
MICHIGAN CITY+ FAIR      81  55  41 SW12      29.96F
MONTICELLO +   FAIR      80  55  42 SW6       29.97F

$$

LMZ046-743>745-251600-
SOUTHERN LAKE MICHIGAN

STATION/POSITION TIME  TEMP    WIND        PRES    WAVE
                       AIR SEA DIR/SP/G            HT
                 (UTC) (F)     (DEG/KT/KT) (MB)    (FT)
BURNS HARBOR     1440   76     220/ 10/ 15 1014.9S
MICHIGAN CITY    1430   77     190/ 13/ 16   N/A
5NW MICH CITY    1450   67 60  230/  6/  6   N/A     1

$$

INZ004-005-014>016-021>024-251600-
NORTH CENTRAL INDIANA

CITY           SKY/WX    TMP DP  RH WIND       PRES   REMARKS
GOSHEN         FAIR      78  58  49 SW10      29.98F
PERU/GRISSOM   FAIR      80  56  44 W7        29.98F
SOUTH BEND     FAIR      78  54  43 SW9       29.97F
WARSAW +       FAIR      79  54  41 SW7       29.99F

$$

INZ006>009-017-018-025>027-251600-
NORTHEAST INDIANA

CITY           SKY/WX    TMP DP  RH WIND       PRES   REMARKS
ANGOLA *+      FAIR      79  54  41 W9G15     29.99F
FORT WAYNE     FAIR      81  56  42 SW9       30.00F

$$

INZ028-029-035-036-043>045-051>053-251600-
WEST CENTRAL INDIANA

CITY           SKY/WX    TMP DP  RH WIND       PRES   REMARKS
CRAWFORDSVL +  FAIR      79  56  46 SW7       29.99F
GREENCASTLE +  FAIR      79  55  44 CALM      30.01S
LAFAYETTE      FAIR      80  57  45 VRB5      29.97F
TERRE HAUTE    FAIR      81  59  47 SW7       29.99F

$$

INZ030>032-037>040-046>048-054>057-064-065-251600-
CENTRAL INDIANA

CITY           SKY/WX    TMP DP  RH WIND       PRES   REMARKS
COLUMBUS       SUNNY     77  55  47 S5        30.01F
FRANKFORT +    FAIR      83  58  41 W7        30.01S
INDIANAPOLIS   FAIR      80  56  43 W7        30.00S
-EAGLE CREEK   FAIR      81  57  43 VRB5      29.99F
KOKOMO +       FAIR      80  53  39 SW5       30.00F HAZE
SHELBYVILLE    FAIR      81  56  42 VRB6      30.00F

$$

INZ033-034-041-042-049-050-058-059-251600-
EAST CENTRAL INDIANA

CITY           SKY/WX    TMP DP  RH WIND       PRES   REMARKS
MUNCIE         FAIR      82  54  37 NW7       30.00F
RICHMOND +     FAIR      75  55  50 SW7       30.03S

$$

INZ060-061-067>069-081>083-085>088-251600-
SOUTHWEST INDIANA

CITY           SKY/WX    TMP DP  RH WIND       PRES   REMARKS
EVANSVILLE     FAIR      81  65  58 SW7       30.00S
HUNTINGBURG +  FAIR      80  64  58 SW7       30.00F

$$

INZ062-063-066-070>080-084-089>092-251600-
SOUTH CENTRAL AND SOUTHEAST INDIANA

CITY           SKY/WX    TMP DP  RH WIND       PRES   REMARKS
BLOOMINGTON    FAIR      80  58  46 SW7       30.01S
FRENCH LICK *+ FAIR      77  50  38 S5        30.02S
SEYMOUR +      FAIR      81  61  50 S5        30.00F

$$





USA.gov is the U.S. government's official web portal to all federal, state and local government web resources and services.